Overview Statistics Trail Chart Weather Telemetry Raw packets
 

This is the latest recevied weather packets stored in our database for station/object W7BTL. If no packets are shown the sender has not sent any weather packets the latest 10 day(s).

<< 101 102 103 104 105 106 107 >>
Time Temp. Humidity Pressure Rain* Wind** Luminosity Snow
1787895586 26.11° C 68% 1009.6 hPa 0 mm - 0 W/m² -
1787895281 26.11° C 68% 1009.6 hPa 0 mm - 0 W/m² -
1787894976 26.11° C 67% 1009.5 hPa 0 mm - 0 W/m² -
1787894672 26.11° C 67% 1009.5 hPa 0 mm - 0 W/m² -
1787894371 26.11° C 66% 1009.4 hPa 0 mm - 0 W/m² -
1787894067 26.11° C 66% 1009.6 hPa 0 mm - 0 W/m² -
1787893764 26.11° C 66% 1009.7 hPa 0 mm - 0 W/m² -
1787893464 26.11° C 66% 1009.7 hPa 0 mm - 0 W/m² -
1787893160 26.11° C 66% 1009.5 hPa 0 mm - 0 W/m² -
1787892856 26.11° C 66% 1009.5 hPa 0 mm - 0 W/m² -
1787892553 26.11° C 68% 1009.9 hPa 0 mm - 0 W/m² -
1787892248 26.11° C 78% 1009.7 hPa 0 mm - 0 W/m² -
1787891944 26.11° C 77% 1009.8 hPa 0 mm - 0 W/m² -
1787891639 26.11° C 77% 1009.9 hPa 0 mm - 0 W/m² -
1787891335 26.11° C 77% 1009.7 hPa 0 mm - 0 W/m² -
1787891029 26.67° C 76% 1009.6 hPa 0 mm - 0 W/m² -
1787890728 26.67° C 76% 1009.6 hPa 0 mm - 0 W/m² -
1787890423 26.67° C 75% 1009.5 hPa 0 mm - 0 W/m² -
1787890119 26.11° C 67% 1009.5 hPa 0 mm - 0 W/m² -
1787889818 26.11° C 65% 1009.4 hPa 0 mm - 0 W/m² -
1787889514 26.11° C 64% 1009.4 hPa 0 mm - 0 W/m² -
1787889213 26.11° C 65% 1009.3 hPa 0 mm - 0 W/m² -
1787888908 26.11° C 65% 1009.2 hPa 0 mm - 0 W/m² -
1787888603 26.67° C 65% 1009.2 hPa 0 mm - 0 W/m² -
1787888298 26.67° C 65% 1008.9 hPa 0 mm - 0 W/m² -

* Rain latest hour (hover to see other rain measurements)
** Current wind speed in m/s (hover to see current wind gust speed)